TimeCST,TemperatureF,Dew PointF,Humidity,Sea Level PressureIn,VisibilityMPH,Wind Direction,Wind SpeedMPH,Gust SpeedMPH,PrecipitationIn,Events,Conditions,WindDirDegrees,DateUTC
12:15 AM,28.4,24.8,86,29.51,1.2,ESE,10.4,-,N/A,,Overcast,110,2012-12-18 06:15:00
12:35 AM,28.4,24.8,86,29.50,1.5,ESE,11.5,16.1,N/A,,Overcast,110,2012-12-18 06:35:00
12:55 AM,28.4,24.8,86,29.49,2.0,ESE,8.1,-,N/A,,Overcast,110,2012-12-18 06:55:00
1:15 AM,28.4,24.8,86,29.50,2.5,ESE,6.9,-,N/A,,Overcast,120,2012-12-18 07:15:00
1:35 AM,28.4,24.8,86,29.50,2.0,SE,3.5,-,N/A,,Overcast,140,2012-12-18 07:35:00
1:55 AM,28.4,24.8,86,29.49,2.5,ESE,6.9,-,N/A,,Overcast,110,2012-12-18 07:55:00
2:15 AM,28.4,24.8,86,29.48,2.5,SE,4.6,-,N/A,,Overcast,130,2012-12-18 08:15:00
2:35 AM,28.4,24.8,86,29.48,3.0,SE,4.6,-,N/A,,Scattered Clouds,140,2012-12-18 08:35:00
2:55 AM,28.4,24.8,86,29.48,4.0,SE,3.5,-,N/A,,Clear,140,2012-12-18 08:55:00
3:15 AM,26.6,24.8,93,29.46,4.0,SE,3.5,-,N/A,,Clear,130,2012-12-18 09:15:00
3:35 AM,26.6,23.0,86,29.46,4.0,ESE,3.5,-,N/A,,Clear,120,2012-12-18 09:35:00
3:55 AM,26.6,23.0,86,29.46,5.0,Calm,Calm,-,N/A,,Clear,0,2012-12-18 09:55:00
4:15 AM,26.6,21.2,80,29.45,5.0,Calm,Calm,-,N/A,,Clear,0,2012-12-18 10:15:00
4:35 AM,26.6,23.0,86,29.46,5.0,WSW,3.5,-,N/A,,Clear,250,2012-12-18 10:35:00
4:55 AM,26.6,23.0,86,29.46,8.0,WSW,5.8,-,N/A,,Clear,250,2012-12-18 10:55:00
5:15 AM,26.6,23.0,86,29.46,10.0,West,4.6,-,N/A,,Clear,260,2012-12-18 11:15:00
5:35 AM,26.6,21.2,80,29.47,10.0,WSW,3.5,-,N/A,,Clear,250,2012-12-18 11:35:00
5:55 AM,26.6,23.0,86,29.47,10.0,West,6.9,-,N/A,,Clear,280,2012-12-18 11:55:00
6:15 AM,30.2,26.6,86,29.48,10.0,West,12.7,-,N/A,,Clear,260,2012-12-18 12:15:00
6:35 AM,30.2,26.6,86,29.50,10.0,WNW,16.1,-,N/A,,Clear,290,2012-12-18 12:35:00
6:55 AM,33.8,26.6,75,29.52,10.0,WNW,23.0,31.1,N/A,,Clear,300,2012-12-18 12:55:00
7:15 AM,32.0,24.8,75,29.55,10.0,NW,23.0,33.4,N/A,,Clear,310,2012-12-18 13:15:00
7:35 AM,30.2,24.8,80,29.55,10.0,NW,18.4,-,N/A,,Clear,310,2012-12-18 13:35:00
7:55 AM,30.2,24.8,80,29.56,10.0,NW,19.6,24.2,N/A,,Clear,320,2012-12-18 13:55:00
8:15 AM,30.2,24.8,80,29.59,10.0,NW,17.3,24.2,N/A,,Clear,310,2012-12-18 14:15:00
8:35 AM,30.2,24.8,80,29.61,10.0,NW,17.3,21.9,N/A,,Clear,310,2012-12-18 14:35:00
8:55 AM,32.0,24.8,75,29.62,10.0,NW,15.0,-,N/A,,Clear,310,2012-12-18 14:55:00
9:15 AM,33.8,26.6,75,29.63,10.0,NW,15.0,-,N/A,,Clear,310,2012-12-18 15:15:00
9:35 AM,33.8,26.6,75,29.63,10.0,WNW,12.7,-,N/A,,Clear,300,2012-12-18 15:35:00
9:55 AM,35.6,28.4,75,29.64,10.0,NW,12.7,-,N/A,,Clear,310,2012-12-18 15:55:00
10:15 AM,37.4,30.2,75,29.65,10.0,NW,13.8,20.7,N/A,,Clear,320,2012-12-18 16:15:00
10:35 AM,39.2,30.2,70,29.66,10.0,NW,19.6,-,N/A,,Clear,320,2012-12-18 16:35:00
10:55 AM,39.2,32.0,75,29.67,10.0,NW,16.1,24.2,N/A,,Clear,320,2012-12-18 16:55:00
11:15 AM,42.8,33.8,70,29.67,10.0,NW,16.1,21.9,N/A,,Clear,310,2012-12-18 17:15:00
11:35 AM,42.8,33.8,70,29.68,10.0,NNW,12.7,19.6,N/A,,Clear,330,2012-12-18 17:35:00
11:55 AM,44.6,33.8,66,29.68,10.0,NW,24.2,-,N/A,,Clear,310,2012-12-18 17:55:00
12:15 PM,44.6,33.8,66,29.68,10.0,NW,17.3,-,N/A,,Clear,310,2012-12-18 18:15:00
12:35 PM,44.6,33.8,66,29.68,10.0,NW,16.1,-,N/A,,Clear,320,2012-12-18 18:35:00
12:55 PM,46.4,33.8,62,29.68,10.0,NW,19.6,24.2,N/A,,Clear,310,2012-12-18 18:55:00
1:15 PM,46.4,33.8,62,29.69,10.0,NW,18.4,-,N/A,,Clear,320,2012-12-18 19:15:00
1:35 PM,46.4,33.8,62,29.69,10.0,NW,15.0,-,N/A,,Clear,310,2012-12-18 19:35:00
1:55 PM,46.4,33.8,62,29.69,10.0,NNW,13.8,17.3,N/A,,Clear,330,2012-12-18 19:55:00
2:15 PM,46.4,33.8,62,29.70,10.0,NNW,9.2,-,N/A,,Clear,330,2012-12-18 20:15:00
2:35 PM,48.2,33.8,58,29.70,10.0,NW,12.7,-,N/A,,Clear,320,2012-12-18 20:35:00
2:55 PM,48.2,30.2,50,29.70,10.0,NW,17.3,21.9,N/A,,Clear,320,2012-12-18 20:55:00
3:15 PM,46.4,30.2,53,29.71,10.0,NNW,13.8,-,N/A,,Clear,330,2012-12-18 21:15:00
3:35 PM,46.4,30.2,53,29.72,10.0,NNW,8.1,-,N/A,,Clear,330,2012-12-18 21:35:00
3:55 PM,46.4,30.2,53,29.72,10.0,NNW,8.1,-,N/A,,Clear,330,2012-12-18 21:55:00
4:15 PM,44.6,30.2,57,29.74,10.0,NNW,5.8,-,N/A,,Clear,330,2012-12-18 22:15:00
4:35 PM,44.6,28.4,53,29.74,10.0,Calm,Calm,-,N/A,,Clear,0,2012-12-18 22:35:00
4:55 PM,42.8,28.4,57,29.76,10.0,Calm,Calm,-,N/A,,Clear,0,2012-12-18 22:55:00
5:15 PM,42.8,28.4,57,29.77,10.0,South,3.5,-,N/A,,Clear,190,2012-12-18 23:15:00
5:35 PM,37.4,26.6,65,29.78,10.0,SSE,4.6,-,N/A,,Clear,160,2012-12-18 23:35:00
5:55 PM,35.6,26.6,70,29.79,10.0,Calm,Calm,-,N/A,,Clear,0,2012-12-18 23:55:00
6:15 PM,33.8,24.8,70,29.80,10.0,Calm,Calm,-,N/A,,Clear,0,2012-12-19 00:15:00
6:35 PM,30.2,24.8,80,29.80,10.0,Calm,Calm,-,N/A,,Clear,0,2012-12-19 00:35:00
6:55 PM,30.2,24.8,80,29.81,10.0,Calm,Calm,-,N/A,,Clear,0,2012-12-19 00:55:00
7:15 PM,30.2,24.8,80,29.81,10.0,Calm,Calm,-,N/A,,Clear,0,2012-12-19 01:15:00
7:35 PM,30.2,24.8,80,29.81,10.0,Calm,Calm,-,N/A,,Clear,0,2012-12-19 01:35:00
7:55 PM,30.2,24.8,80,29.81,10.0,Calm,Calm,-,N/A,,Clear,0,2012-12-19 01:55:00
8:15 PM,28.4,23.0,80,29.81,10.0,Calm,Calm,-,N/A,,Clear,0,2012-12-19 02:15:00
8:35 PM,28.4,23.0,80,29.81,10.0,Calm,Calm,-,N/A,,Clear,0,2012-12-19 02:35:00
8:55 PM,28.4,23.0,80,29.80,10.0,NW,4.6,-,N/A,,Clear,320,2012-12-19 02:55:00
9:15 PM,30.2,24.8,80,29.81,10.0,Calm,Calm,-,N/A,,Mostly Cloudy,0,2012-12-19 03:15:00
9:35 PM,30.2,24.8,80,29.82,10.0,Calm,Calm,-,N/A,,Mostly Cloudy,0,2012-12-19 03:35:00
9:55 PM,28.4,23.0,80,29.82,10.0,East,4.6,-,N/A,,Partly Cloudy,80,2012-12-19 03:55:00
10:15 PM,28.4,24.8,86,29.82,10.0,Calm,Calm,-,N/A,,Clear,0,2012-12-19 04:15:00
10:35 PM,28.4,23.0,80,29.82,10.0,Calm,Calm,-,N/A,,Clear,0,2012-12-19 04:35:00
10:55 PM,26.6,21.2,80,29.82,10.0,Calm,Calm,-,N/A,,Clear,0,2012-12-19 04:55:00
11:15 PM,26.6,21.2,80,29.83,10.0,NW,3.5,-,N/A,,Clear,320,2012-12-19 05:15:00
11:35 PM,26.6,21.2,80,29.83,10.0,Calm,Calm,-,N/A,,Partly Cloudy,0,2012-12-19 05:35:00
11:55 PM,26.6,21.2,80,29.83,10.0,Calm,Calm,-,N/A,,Clear,0,2012-12-19 05:55:00